Lexington Weather

Lexington, Massachusetts, USA

43°F
1/23/2020 12:23pm 
  • Lexington Conditions: Mostly cloudy
  • Temperature: 43.2°F / 6.2°CWarmer 4.4°F than last hour.
  • Dew Point: 21.6°FDecreased 0.7°Fsince last hour.
  • Relative Humidity: 42%Decreased 9.0% since last hour.
  • Wind: Calm, 10-min avg: Calm, gust: None
  • Barometer: 30.30 inFalling 0.02  inHg/hr Falling Slowly
  • Visibility: 10 miles
  • Rain Today: 0.01 in
  •   

Regional Weather Roundup
for Boston / Norton, MA

        
000
ASUS41 KBOX 210210
RWRBOX

REGIONAL WEATHER ROUNDUP
NATIONAL WEATHER SERVICE BOSTON/NORTON MA
900 PM EST MON JAN 20 2020

NOTE:  "FAIR" INDICATES FEW OR NO CLOUDS BELOW 12,000 FEET WITH NO 
SIGNIFICANT WEATHER AND/OR OBSTRUCTIONS TO VISIBILITY.

MAZALL-210300-
EASTERN MASSACHUSETTS
  
CITY           SKY/WX    TMP DP  RH WIND       PRES   REMARKS
BOSTON         FAIR      25  -3  29 W12       30.29F WCI  14          
BEVERLY        FAIR      19  -2  39 W5        30.28R WCI  12          
LAWRENCE       FAIR      18  -2  41 W7        30.30R WCI   9          
BEDFORD        FAIR      20  -6  31 SW5       30.28S WCI  13          
BLUE HILL      NOT AVBL                                               
NORWOOD        FAIR      21  -2  36 W3        30.30S                  
MARSHFIELD     FAIR      19   5  53 CALM      30.28F                  
PLYMOUTH       FAIR      21   1  41 NW9       30.28S WCI  11          
TAUNTON        FAIR      22  -4  32 NW7       30.29S WCI  13          
NEW BEDFORD    FAIR      22  -3  33 VRB7      30.29R WCI  13          
$$

MAZALL-210300-
CAPE COD AND THE ISLANDS
  
CITY           SKY/WX    TMP DP  RH WIND       PRES   REMARKS
FALMOUTH       CLEAR     19   1  45 NW8       30.28R WCI   9          
HYANNIS        FAIR      26   4  38 NW9       30.26R WCI  17          
CHATHAM        FAIR      26   9  48 N6        30.27R WCI  19          
PROVINCETOWN   FAIR      27  10  49 NW18G26   30.27S WCI  14          
NANTUCKET      FAIR      27   7  42 NW9       30.27R WCI  18          
MARTHAS VNYRD  FAIR      25   4  40 NW10      30.28R WCI  15          
$$
 
MAZALL-210300-
CENTRAL AND WESTERN MASSACHUSETTS
  
CITY           SKY/WX    TMP DP  RH WIND       PRES   REMARKS
WORCESTER      FAIR      13  -2  51 W9        30.23F WCI   1          
FITCHBURG      FAIR      17  -3  41 NW9       30.28F WCI   6          
ORANGE         FAIR       8  -2  63 CALM      30.30S                  
SPRINGFIELD    CLEAR     16  -2  45 NW7       30.32S WCI   6          
WESTFIELD      FAIR      16  -2  45 CALM      30.34S                  
NORTH ADAMS    FAIR      12  -2  53 W8        30.34R WCI   0          
PITTSFIELD     FAIR      12   0  58 W15G22    30.28R WCI  -4          
$$
 
RIZALL-210300-
RHODE ISLAND
  
CITY           SKY/WX    TMP DP  RH WIND       PRES   REMARKS
PROVIDENCE     FAIR      22   0  38 W7        30.31R WCI  13          
NEWPORT        FAIR      24   0  35 N8        30.29S WCI  15          
BLOCK ISLAND   FAIR      24   6  46 N13       30.32R WCI  12          
SMITHFIELD     FAIR      18  -1  43 NW7       30.28S WCI   9          
WESTERLY       FAIR      25  -1  32 W3        30.33R                  
$$
 
CTZALL-210300-
CONNECTICUT
  
CITY           SKY/WX    TMP DP  RH WIND       PRES   REMARKS
BRADLEY INTL   FAIR      18  -1  43 NW9       30.34S WCI   7          
HARTFORD       FAIR      20  -1  40 NW3       30.36S                  
BRIDGEPORT     FAIR      23  -4  30 NW8       30.37R WCI  14          
DANBURY        FAIR      17  -5  37 W3        30.35S                  
GROTON         FAIR      21   1  41 NW7       30.33R WCI  12          
NEW HAVEN      FAIR      23  -2  33 N7        30.36R WCI  15          
CHESTER        NOT AVBL                                               
MERIDEN        FAIR      19  -1  41 VRB6      30.36R WCI  11          
WILLIMANTIC    FAIR      19   0  43 NW5       30.34R WCI  12          
OXFORD         FAIR      17  -2  43 NW10      30.31R WCI   5          
$$

MEZ002-015-021-024-NHZ003-005-008-011-012-014-VTZ005-008-210300-
NORTHERN NEW ENGLAND
  
CITY           SKY/WX    TMP DP  RH WIND       PRES   REMARKS
PORTLAND ME    FAIR      17   0  47 W3        30.26R                  
BANGOR ME      FAIR      13  -1  54 NW7       30.22R WCI   3          
CONCORD NH     FAIR      15  -4  42 NW6       30.28R WCI   6          
MANCHESTER NH  FAIR      19  -4  36 W5        30.26R WCI  12          
NASHUA NH      FAIR      18   1  47 W6        30.29S WCI  10          
PORTSMOUTH NH  CLEAR     17  -4  38 NW6       30.22S WCI   8          
JAFFREY NH     FAIR      14  -2  49 VRB5      30.22F WCI   6          
KEENE NH       FAIR       8   2  76 S3        30.30S                  
BURLINGTON VT  FAIR       9   0  67 SE5       30.35S WCI   1          
MT. WASHINGTON PTCLDY    -8 -18  59 NW66        N/A  WCI -45          
$$

NYZ052-076-210300-
EASTERN NEW YORK
  
CITY           SKY/WX    TMP DP  RH WIND       PRES   REMARKS
ALBANY         FAIR      17   2  51 NW6       30.40S WCI   9          
NEW YORK CITY  FAIR      26   1  34 NW18      30.37R WCI  13          
$$
 
ANZALL-210300-
MARINE OBSERVATIONS
  
STATION/POSITION TIME  TEMP    WIND        PRES    VSBY  WAVE
                       AIR SEA DIR/SP/G                  HT/PER
                 (UTC) (F)     (DEG/KT/KT) (MB)    (MI)  (FT/S)
BOSTON BUOY      0150   27 43  300/ 17/ 21 1024.6R         4/ 7
BUZZARDS BAY     0100   28     330/ 15/ 17 1025.9R
NANTUCKET SOUND  0140                        N/A
MASS BAY-STELLWA 0104   26 42  340/ 23/ 29 1022.9R  1 7/8  4/ 6
ISLE OF SHOALS   0100   22     300/ 16/ 19 1024.2R
S OF BLOCK IS    0200      45                N/A           4/11
$$

......................KEY.........................
  SKY/WX - SKY CONDITION/PRESENT WEATHER
  TMP    - TEMPERATURE IN FAHRENHEIT
  DWPT   - DEWPOINT IN FAHRENHEIT
  RH     - RELATIVE HUMIDITY IN PERCENT
  WIND   - DIRECTION AND SPEED IN MPH
  PRES   - MEAN SEA LEVEL PRESSURE IN INCHES OF HG
  WCI    - WIND CHILL INDEX
  VSB    - VISIBILITY IN MILES
  HX     - HEAT INDEX
  TC     - TEMPERATURE IN CELSIUS
  VRB    - VARIABLE WIND DIRECTION
  N/A    - NOT AVAILABLE
  
      

Other recent Regional Weather Roundups

Thu Jan 23, 12:10pm

Thu Jan 23, 12:01pm

Thu Jan 23, 11:10am

Thu Jan 23, 11:00am

Thu Jan 23, 10:10am

Thu Jan 23, 10:00am

Thu Jan 23, 9:10am

Thu Jan 23, 9:00am

Thu Jan 23, 8:10am

Thu Jan 23, 8:00am

Thu Jan 23, 7:10am

Thu Jan 23, 7:01am

Thu Jan 23, 6:10am

Thu Jan 23, 6:00am

Thu Jan 23, 5:10am

Thu Jan 23, 5:00am

Thu Jan 23, 4:10am

Thu Jan 23, 4:01am

Thu Jan 23, 3:10am

Thu Jan 23, 3:00am

Thu Jan 23, 2:10am

Thu Jan 23, 2:00am

Thu Jan 23, 1:10am

Thu Jan 23, 1:00am

Thu Jan 23, 12:10am

Thu Jan 23, 12:00am

Wed Jan 22, 11:10pm

Wed Jan 22, 11:01pm

Wed Jan 22, 10:10pm

Wed Jan 22, 10:00pm

Wed Jan 22, 9:10pm

Wed Jan 22, 9:00pm

Wed Jan 22, 8:10pm

Wed Jan 22, 8:01pm

Wed Jan 22, 7:10pm

Wed Jan 22, 7:00pm

Wed Jan 22, 6:10pm

Wed Jan 22, 6:01pm

Wed Jan 22, 5:10pm

Wed Jan 22, 5:00pm

Wed Jan 22, 4:10pm

Wed Jan 22, 4:00pm

Wed Jan 22, 3:10pm

Wed Jan 22, 3:00pm

Wed Jan 22, 2:10pm

Wed Jan 22, 2:00pm

Wed Jan 22, 1:10pm

Wed Jan 22, 1:00pm

Wed Jan 22, 12:10pm

Wed Jan 22, 12:00pm

Wed Jan 22, 11:10am

Wed Jan 22, 11:00am

Wed Jan 22, 10:10am

Wed Jan 22, 10:01am

Wed Jan 22, 9:10am

Wed Jan 22, 9:00am

Wed Jan 22, 8:10am

Wed Jan 22, 8:00am

Wed Jan 22, 7:10am

Wed Jan 22, 7:00am

Wed Jan 22, 6:10am

Wed Jan 22, 6:00am

Wed Jan 22, 5:10am

Wed Jan 22, 5:00am

Wed Jan 22, 4:10am

Wed Jan 22, 4:00am

Wed Jan 22, 3:10am

Wed Jan 22, 3:01am

Wed Jan 22, 2:10am

Wed Jan 22, 2:00am

Wed Jan 22, 1:10am

Wed Jan 22, 1:00am

Wed Jan 22, 12:10am

Wed Jan 22, 12:00am

Tue Jan 21, 11:10pm

Tue Jan 21, 11:00pm

Tue Jan 21, 10:10pm

Tue Jan 21, 10:00pm

Tue Jan 21, 9:10pm

Tue Jan 21, 9:01pm

Tue Jan 21, 8:10pm

Tue Jan 21, 8:00pm

Tue Jan 21, 7:10pm

Tue Jan 21, 7:00pm

Tue Jan 21, 6:10pm

Tue Jan 21, 6:01pm

Tue Jan 21, 5:10pm

Tue Jan 21, 5:00pm

Tue Jan 21, 4:10pm

Tue Jan 21, 4:00pm

Tue Jan 21, 3:10pm

Tue Jan 21, 3:01pm

Tue Jan 21, 2:10pm

Tue Jan 21, 2:00pm

Tue Jan 21, 1:10pm

Tue Jan 21, 1:00pm

Tue Jan 21, 12:10pm

Tue Jan 21, 12:00pm

Tue Jan 21, 11:10am

Tue Jan 21, 11:00am

Tue Jan 21, 10:10am

Tue Jan 21, 10:00am

Tue Jan 21, 9:10am

Tue Jan 21, 9:00am

Tue Jan 21, 8:10am

Tue Jan 21, 8:00am

Tue Jan 21, 7:10am

Tue Jan 21, 7:00am

Tue Jan 21, 6:10am

Tue Jan 21, 6:00am

Tue Jan 21, 5:10am

Tue Jan 21, 5:00am

Tue Jan 21, 4:10am

Tue Jan 21, 4:00am

Tue Jan 21, 3:10am

Tue Jan 21, 3:00am

Tue Jan 21, 2:10am

Tue Jan 21, 2:01am

Tue Jan 21, 1:10am

Tue Jan 21, 1:00am

Tue Jan 21, 12:10am

Tue Jan 21, 12:00am

Mon Jan 20, 11:10pm

Mon Jan 20, 11:00pm

Mon Jan 20, 10:10pm

Mon Jan 20, 10:00pm

Mon Jan 20, 9:00pm

Mon Jan 20, 8:10pm

Mon Jan 20, 8:00pm

Mon Jan 20, 7:10pm

Mon Jan 20, 7:00pm

Mon Jan 20, 6:10pm

Mon Jan 20, 6:00pm

Mon Jan 20, 5:10pm

Mon Jan 20, 5:00pm

Mon Jan 20, 4:10pm

Mon Jan 20, 4:01pm

Mon Jan 20, 3:10pm

Mon Jan 20, 3:00pm

Mon Jan 20, 2:10pm

Mon Jan 20, 2:00pm

Mon Jan 20, 1:10pm

Mon Jan 20, 1:00pm

Meta data:

ID: 0d8b549e-88e5-4a7b-b373-d4923b7365ec
Link: https://api.weather.gov/products/0d8b549e-88e5-4a7b-b373-d4923b7365ec